GW0114 Weather Reports


Display with metric or nautical units.
time (UTC)temp
F
wind
direction
speed
MPH
gust
MPH
rain 1hr
in
rain 24hr
in
rain mn
in
humidity
%
barometer
mb
20260505070053 57 212 0.0 0.0 0.00 0.00 0.00 63 1014.4
20260505065549 57 0 0.0 0.0 0.00 0.00 0.00 62 1014.4
20260505065048 57 0 0.0 0.0 0.00 0.00 0.00 62 1014.5
20260505064553 57 0 0.0 0.0 0.00 0.00 0.00 62 1014.5
20260505064048 57 0 0.0 0.0 0.00 0.00 0.00 62 1014.5
20260505063549 57 0 0.0 0.0 0.00 0.00 0.00 62 1014.6
20260505063052 58 0 0.0 0.0 0.00 0.00 0.00 62 1014.6
20260505062552 58 0 0.0 0.0 0.00 0.00 0.00 62 1014.6
20260505062051 58 0 0.0 0.0 0.00 0.00 0.00 61 1014.7
20260505061553 58 0 0.0 0.0 0.00 0.00 0.00 61 1014.7
20260505061049 58 0 0.0 0.0 0.00 0.00 0.00 61 1014.7
20260505060549 58 0 0.0 0.0 0.00 0.00 0.00 61 1014.7
20260505060058 59 0 0.0 0.0 0.00 0.00 0.00 61 1014.7
20260505055549 59 0 0.0 0.0 0.00 0.00 0.00 61 1014.7
20260505055049 59 0 0.0 0.0 0.00 0.00 0.00 61 1014.8
20260505054557 59 0 0.0 0.0 0.00 0.00 0.00 60 1014.7
20260505054049 59 0 0.0 0.0 0.00 0.00 0.00 61 1014.9
20260505053550 59 0 0.0 0.0 0.00 0.00 0.00 60 1014.7
20260505053054 59 0 0.0 0.0 0.00 0.00 0.00 60 1014.8
20260505052552 59 0 0.0 0.0 0.00 0.00 0.00 59 1015.0
20260505052048 59 0 0.0 3.0 0.00 0.00 0.00 59 1015.0
20260505051554 59 0 0.0 3.0 0.00 0.00 0.00 59 1015.0
20260505051049 59 0 0.0 0.0 0.00 0.00 0.00 59 1014.8
20260505050551 59 0 0.0 0.0 0.00 0.00 0.00 59 1014.9
20260505041550 60 0 0.0 0.0 0.00 0.00 0.00 58 1014.9
20260505041049 60 0 0.0 0.0 0.00 0.00 0.00 59 1015.0
20260505040551 60 0 0.0 0.0 0.00 0.00 0.00 59 1015.0
20260505040059 60 0 0.0 0.0 0.00 0.00 0.00 59 1014.9
20260505035548 60 0 0.0 0.0 0.00 0.00 0.00 59 1015.0
20260505035049 60 0 0.0 0.0 0.00 0.00 0.00 59 1015.1
20260505034552 60 0 0.0 0.0 0.00 0.00 0.00 59 1015.1
20260505034045 60 0 0.0 0.0 0.00 0.00 0.00 59 1015.1
20260505033545 60 0 0.0 0.0 0.00 0.00 0.00 59 1015.1
20260505033051 60 0 0.0 0.0 0.00 0.00 0.00 59 1015.2
20260505032544 60 0 0.0 0.0 0.00 0.00 0.00 58 1015.2
20260505032048 61 0 0.0 0.0 0.00 0.00 0.00 57 1015.2
20260505031558 61 0 0.0 0.0 0.00 0.00 0.00 58 1015.1
20260505031048 61 0 0.0 0.0 0.00 0.00 0.00 58 1015.2
20260505030545 61 0 0.0 0.0 0.00 0.00 0.00 58 1015.2
20260505030058 61 0 0.0 0.0 0.00 0.00 0.00 57 1015.2
20260505025549 61 0 0.0 0.0 0.00 0.00 0.00 58 1015.2
20260505025049 61 0 0.0 0.0 0.00 0.00 0.00 57 1015.1
20260505024554 62 0 0.0 0.0 0.00 0.00 0.00 58 1015.2
20260505024048 62 0 0.0 0.0 0.00 0.00 0.00 57 1015.2
20260505023545 62 0 0.0 0.0 0.00 0.00 0.00 57 1015.1
20260505023052 62 0 0.0 0.0 0.00 0.00 0.00 56 1015.1
20260505022549 62 0 0.0 0.0 0.00 0.00 0.00 56 1015.1
20260505022049 62 0 0.0 0.0 0.00 0.00 0.00 56 1015.0
20260505021549 62 0 0.0 0.0 0.00 0.00 0.00 56 1015.0
20260505021048 63 0 0.0 0.0 0.00 0.00 0.00 56 1015.0
20260505020553 63 0 0.0 0.0 0.00 0.00 0.00 56 1014.9
20260505020055 63 0 0.0 1.0 0.00 0.00 0.00 56 1014.8
20260505015549 63 0 0.0 1.0 0.00 0.00 0.00 55 1014.7
20260505015049 63 0 0.0 1.0 0.00 0.00 0.00 54 1014.7
20260505014603 63 0 0.0 0.0 0.00 0.00 0.00 55 1014.6
20260505014049 64 0 0.0 0.0 0.00 0.00 0.00 54 1014.5
20260505013545 64 0 0.0 0.0 0.00 0.00 0.00 53 1014.5
20260505013049 64 0 0.0 0.0 0.00 0.00 0.00 53 1014.3
20260505012545 64 0 0.0 0.0 0.00 0.00 0.00 53 1014.4
20260505012049 65 0 0.0 0.0 0.00 0.00 0.00 52 1014.4
20260505011553 65 0 0.0 0.0 0.00 0.00 0.00 51 1014.2
20260505011049 65 0 0.0 3.0 0.00 0.00 0.00 51 1014.2
20260505010548 65 0 0.0 3.0 0.00 0.00 0.00 51 1014.2
20260505010055 66 221 0.0 0.0 0.00 0.00 0.00 51 1014.1
20260505005549 66 0 0.0 1.0 0.00 0.00 0.00 50 1014.2
20260505005048 66 0 0.0 1.0 0.00 0.00 0.00 50 1014.1
20260505004556 66 0 0.0 1.0 0.00 0.00 0.00 48 1014.0
20260505004050 67 0 0.0 0.0 0.00 0.00 0.00 48 1014.0
20260505003548 67 0 0.0 0.0 0.00 0.00 0.00 47 1013.7
20260505003053 67 0 0.0 0.0 0.00 0.00 0.00 47 1013.7
20260505002549 68 0 0.0 0.0 0.00 0.00 0.00 46 1013.6
20260505002048 68 0 0.0 0.0 0.00 0.00 0.00 46 1013.6
20260505001552 68 0 0.0 0.0 0.00 0.00 0.00 46 1013.5
20260505001047 69 0 0.0 2.0 0.00 0.00 0.00 45 1013.5
20260505000545 69 0 0.0 2.0 0.00 0.00 0.00 45 1013.5
20260505000056 69 0 0.0 0.0 0.00 0.00 0.00 44 1013.6
20260504235550 70 0 0.0 0.0 0.00 0.00 0.00 43 1013.6
20260504235050 70 0 0.0 3.0 0.00 0.00 0.00 43 1013.4
20260504234552 70 0 0.0 3.0 0.00 0.00 0.00 43 1013.4
20260504234049 71 0 0.0 0.0 0.00 0.00 0.00 43 1013.4
20260504233545 71 0 0.0 0.0 0.00 0.00 0.00 42 1013.4
20260504233051 72 0 0.0 0.0 0.00 0.00 0.00 42 1013.3
20260504232549 72 0 0.0 0.0 0.00 0.00 0.00 42 1013.3
20260504232049 72 0 0.0 0.0 0.00 0.00 0.00 40 1013.2
20260504231550 72 0 0.0 0.0 0.00 0.00 0.00 42 1013.4
20260504231048 73 0 0.0 0.0 0.00 0.00 0.00 40 1013.3
20260504230549 73 0 0.0 0.0 0.00 0.00 0.00 41 1013.2
20260504230056 73 0 0.0 0.0 0.00 0.00 0.00 40 1013.2
20260504225550 73 0 0.0 0.0 0.00 0.00 0.00 41 1013.2
20260504225048 73 0 0.0 4.0 0.00 0.00 0.00 42 1013.2
20260504224553 73 0 0.0 4.0 0.00 0.00 0.00 40 1013.1
20260504224053 73 0 0.0 4.0 0.00 0.00 0.00 40 1013.1
20260504223552 73 0 0.0 0.0 0.00 0.00 0.00 39 1013.2
20260504223051 73 0 0.0 0.0 0.00 0.00 0.00 38 1013.2
20260504222552 73 0 0.0 0.0 0.00 0.00 0.00 38 1013.2
20260504222049 73 0 0.0 0.0 0.00 0.00 0.00 37 1013.2
20260504221552 73 0 0.0 0.0 0.00 0.00 0.00 37 1013.2
20260504221049 73 0 0.0 0.0 0.00 0.00 0.00 36 1013.2
20260504220548 73 0 0.0 0.0 0.00 0.00 0.00 37 1013.3
20260504220052 73 0 0.0 0.0 0.00 0.00 0.00 37 1013.3
20260504215551 73 0 0.0 0.0 0.00 0.00 0.00 35 1013.4
20260504215048 73 0 0.0 0.0 0.00 0.00 0.00 37 1013.3
20260504214603 73 0 0.0 0.0 0.00 0.00 0.00 37 1013.4
20260504214048 73 0 0.0 0.0 0.00 0.00 0.00 34 1013.3
20260504213548 73 0 0.0 4.0 0.00 0.00 0.00 35 1013.3
20260504213049 73 0 0.0 4.0 0.00 0.00 0.00 35 1013.3
20260504212545 73 0 0.0 0.0 0.00 0.00 0.00 35 1013.4
20260504212047 73 0 0.0 0.0 0.00 0.00 0.00 34 1013.3
20260504211549 73 0 0.0 4.0 0.00 0.00 0.00 32 1013.3
20260504211046 73 0 0.0 4.0 0.00 0.00 0.00 35 1013.4
20260504210548 73 0 0.0 4.0 0.00 0.00 0.00 32 1013.2
20260504205549 73 0 0.0 0.0 0.00 0.00 0.00 34 1013.3
20260504205051 73 0 0.0 0.0 0.00 0.00 0.00 34 1013.4
20260504204610 73 0 0.0 0.0 0.00 0.00 0.00 35 1013.4
20260504204045 73 0 0.0 0.0 0.00 0.00 0.00 33 1013.5
20260504203548 73 0 0.0 1.0 0.00 0.00 0.00 34 1013.4
20260504203124 73 0 0.0 1.0 0.00 0.00 0.00 32 1013.5
20260504202545 73 0 0.0 1.0 0.00 0.00 0.00 33 1013.5
20260504202046 73 0 0.0 0.0 0.00 0.00 0.00 32 1013.5
20260504201556 73 0 0.0 0.0 0.00 0.00 0.00 31 1013.5
20260504201048 73 0 0.0 0.0 0.00 0.00 0.00 32 1013.6
20260504200548 73 0 0.0 0.0 0.00 0.00 0.00 36 1013.7
20260504200053 73 0 0.0 0.0 0.00 0.00 0.00 35 1013.7
20260504195548 73 0 0.0 0.0 0.00 0.00 0.00 32 1013.9
20260504195047 73 0 0.0 4.0 0.00 0.00 0.00 34 1014.0
20260504194552 73 0 0.0 4.0 0.00 0.00 0.00 37 1014.0
20260504194049 73 0 0.0 2.0 0.00 0.00 0.00 36 1014.2
20260504193548 72 0 0.0 0.0 0.00 0.00 0.00 38 1014.2
20260504193053 72 0 0.0 0.0 0.00 0.00 0.00 37 1014.4
20260504192551 72 0 0.0 0.0 0.00 0.00 0.00 37 1014.5
20260504192048 72 0 0.0 0.0 0.00 0.00 0.00 41 1014.5
20260504191558 72 0 0.0 0.0 0.00 0.00 0.00 39 1014.5
20260504191050 72 0 0.0 0.0 0.00 0.00 0.00 39 1014.5
20260504190550 72 0 0.0 0.0 0.00 0.00 0.00 39 1014.6
20260504190056 72 0 0.0 0.0 0.00 0.00 0.00 36 1014.7
20260504185550 72 0 0.0 0.0 0.00 0.00 0.00 39 1014.6
20260504185050 72 0 0.0 0.0 0.00 0.00 0.00 39 1014.7
20260504184602 72 0 0.0 0.0 0.00 0.00 0.00 37 1014.7
20260504184050 72 0 0.0 0.0 0.00 0.00 0.00 35 1014.8
20260504183550 73 0 0.0 0.0 0.00 0.00 0.00 36 1014.9
20260504183100 73 0 0.0 0.0 0.00 0.00 0.00 37 1015.0
20260504182550 74 0 0.0 0.0 0.00 0.00 0.00 36 1015.0
20260504182049 74 0 0.0 0.0 0.00 0.00 0.00 40 1015.0
20260504181554 75 0 0.0 0.0 0.00 0.00 0.00 39 1015.1
20260504181050 75 0 0.0 0.0 0.00 0.00 0.00 36 1015.2
20260504180552 76 0 0.0 0.0 0.00 0.00 0.00 36 1015.3
20260504180106 76 0 0.0 0.0 0.00 0.00 0.00 35 1015.4
20260504175550 76 0 0.0 0.0 0.00 0.00 0.00 37 1015.5
20260504175052 76 0 0.0 0.0 0.00 0.00 0.00 35 1015.5
20260504174550 76 0 0.0 0.0 0.00 0.00 0.00 35 1015.6
20260504174050 75 0 0.0 0.0 0.00 0.00 0.00 42 1015.5
20260504173550 75 0 0.0 0.0 0.00 0.00 0.00 40 1015.6
20260504173106 75 0 0.0 0.0 0.00 0.00 0.00 38 1015.7
20260504172550 75 0 0.0 0.0 0.00 0.00 0.00 40 1015.7
20260504172051 74 0 0.0 0.0 0.00 0.00 0.00 37 1015.8
20260504171559 74 0 0.0 0.0 0.00 0.00 0.00 38 1015.9
20260504171050 74 0 0.0 0.0 0.00 0.00 0.00 41 1015.9
20260504170551 74 0 0.0 0.0 0.00 0.00 0.00 42 1015.9
20260504151050 57 0 0.0 0.0 0.00 0.00 0.00 68 1017.7
20260504150550 56 0 0.0 0.0 0.00 0.00 0.00 70 1017.9
20260504141050 47 0 0.0 0.0 0.00 0.00 0.00 78 1018.1
20260504140550 47 0 0.0 0.0 0.00 0.00 0.00 80 1018.1
20260504130550 42 0 0.0 0.0 0.00 0.00 0.00 87 1017.9
20260504110549 39 0 0.0 0.0 0.00 0.00 0.00 83 1016.8
20260504100550 39 0 0.0 0.0 0.00 0.00 0.00 82 1017.2
20260504081558 41 0 0.0 0.0 0.00 0.00 0.00 80 1017.1
20260504081049 41 0 0.0 0.0 0.00 0.00 0.00 80 1017.0
20260504080554 42 0 0.0 0.0 0.00 0.00 0.00 80 1016.7